www.pogodaiklimat.ru
ПОГОДА на Дои Эн Ханг

Архив погоды на Дои Эн Ханг (Таиланд)

Время
(UTC), дата
03 27.02
06 27.02
09 27.02
12 27.02
15 27.02
18 27.02
21 27.02
00 28.02
03 28.02
06 28.02
09 28.02
12 28.02
15 28.02
18 28.02
21 28.02
00 29.02
03 29.02
06 29.02
09 29.02
12 29.02
15 29.02
18 29.02
21 29.02
00 1.03
03 1.03
06 1.03
09 1.03
12 1.03
15 1.03
18 1.03
21 1.03
00 2.03
03 2.03
06 2.03
09 2.03
12 2.03
15 2.03
18 2.03
21 2.03
00 3.03
03 3.03
06 3.03
09 3.03
12 3.03
15 3.03
18 3.03
21 3.03
00 4.03
03 4.03
06 4.03
09 4.03
12 4.03
15 4.03
18 4.03
21 4.03
00 5.03
Ветер
(напр.,м/с)
Видим. Явления Облачность Т
(С)
Тd
(С)
f
(%)
Тe
(С)
Тes
(С)
Комфортность P
(гПа)
Po
(гПа)
Тmin
(С)
Tmax
(С)
R
(мм)
R24
(мм)
S
(см)
штиль 0 9000 м мгла 8/0 [Cs] +21.3 +8.3 43 +22 +35 комфорт 1015.4 854.0
штиль 0 9000 м мгла 6/0 [Cs] +26.5 +9.2 34 +27 +47 жарко 1010.3 852.2
штиль 0 9000 м мгла 8/0 [Cs] +23.3 +7.4 36 +24 +30 комфорт 1008.1 848.8
штиль 0 9000 м дымка 8/0 [Ac und Cs] +18.5 +13.4 72 +19 +19 1009.8 847.9 +27.8
штиль 0 8000 м дымка 3/0 [Ci sp] +17.9 +12.7 72 +18 +18 1011.0 848.7
штиль 0 8000 м дымка 6/0 [Cs] +17.0 +12.1 73 +17 +17 1011.8 848.8
штиль 0 8000 м дымка 3/0 [Cs] +17.0 +12.5 75 +17 +17 1010.6 847.8
З 3 8000 м дымка 8/0 [Cs] +19.5 +13.0 66 +21 +21 комфорт 1012.4 850.7 +16.2
Ю 1 9000 м мгла 4/0 [Cs] +22.5 +7.2 37 +23 +35 комфорт 1013.4 853.0
ЮЗ 3 9000 м мгла 6/4 100 м [Cu hum Cs] +26.5 +10.9 38 +27 +35 жарко 1009.7 851.7
штиль 0 9000 м мгла 5/0 [Ac und Cs] +28.0 +4.5 22 +27 +32 жарко 1004.9 848.4
ЮЗ 2 9000 м мгла 4/0 [Cs] +23.3 +2.9 26 +23 +23 комфорт 1006.3 847.3 +28.5
ЮЗ 5 9000 м мгла 3/0 [Cs] +22.0 +5.6 34 +22 +22 комфорт 1008.8 848.8
штиль 0 8000 м мгла 4/0 [Ac und Cs] +20.0 +7.2 43 +21 +21 комфорт 1010.5 849.2
ЮЗ 4 8000 м мгла 3/0 [Ac und Cs] +19.5 +5.1 39 +20 +20 1010.9 849.3
З 4 8000 м мгла 6/0 [Ac cuf Cs] +19.0 +8.4 50 +20 +20 1012.1 850.1 +18.5
З 3 9000 м мгла 3/0 [Cs] +23.0 +7.2 36 +24 +33 комфорт 1012.9 852.8
штиль 0 9000 м 3/3 100 м [Cu hum Cs] +26.8 +10.9 37 +28 +44 жарко 1009.8 851.9
штиль 0 9000 м мгла 4/3 200 м [Cu med, cong Ac und Cs] +27.0 +8.7 32 +27 +32 жарко 1005.8 848.7
ЮЗ 3 8000 м мгла 6/0 [Ac und Cs] +23.5 +3.6 27 +23 +23 комфорт 1006.9 847.9 +27.5
ЮЗ 2 8000 м мгла 3/0 [Ac und Cs] +22.0 +5.6 34 +22 +22 комфорт 1010.1 849.9
ЮЗ 5 8000 м мгла 3/0 [Cs] +20.5 +6.6 40 +21 +21 комфорт 1011.4 850.3
З 2 8000 м мгла 4/1 200 м [Cu med, cong Ac lent Cs] +19.5 +7.0 44 +21 +21 комфорт 1010.9 849.4
ЮЗ 1 8000 м мгла 6/0 [Ac cuf Cs] +18.7 +7.5 48 +20 +20 1012.9 850.6 +18.5
З 4 9000 м мгла 5/0 [Ac cuf Cs] +22.0 +6.2 36 +23 +28 комфорт 1014.1 853.2
ЮЗ 2 <100 м мгла 5/4 200 м [Cu med, cong Ac cuf Cs] +25.5 +7.0 31 +25 +35 комфорт 1010.5 852.0
штиль 0 9000 м мгла 6/3 200 м [Cu med, cong Ac cuf Cs] +27.0 +8.7 32 +27 +31 жарко 1006.6 849.3
штиль 0 8000 м мгла 5/0 [Cs] +26.0 +7.0 30 +24 +24 комфорт 1007.1 849.3 +28.0
ЮЗ 3 8000 м мгла 3/0 [Ac und] +21.5 +5.4 35 +22 +22 комфорт 1010.2 849.8
З 3 8000 м мгла 3/0 [Cs] +20.5 +7.4 43 +22 +22 комфорт 1011.2 850.1
ЮЗ 5 8000 м мгла 3/0 [Ac und] +19.0 +8.4 50 +19 +19 1011.3 849.4
ЮЗ 1 9000 м мгла 8/0 [Ac cuf Cs] +18.0 +2.7 36 +19 +19 1013.7 850.9 +17.0
ЮЗ 2 9000 м мгла 5/0 [Ac und Cs] +22.0 +3.1 29 +22 +31 комфорт 1013.9 853.1
штиль 0 9000 м мгла 5/0 [Cs] +25.0 +7.6 33 +25 +46 комфорт 1010.7 851.9
З 4 9000 м мгла 5/0 [Ac und Cs] +27.0 +2.4 20 +25 +28 комфорт 1006.8 849.6
ЮЗ 7 8000 м мгла 4/0 [Ac und Cs] +23.0 -7.8 12 +21 +21 комфорт 1008.1 848.7 +27.8
ЮЗ 3 8000 м мгла 3/0 [Ac und Cs] +21.5 +6.8 39 +22 +22 комфорт 1010.9 850.3
ЮЗ 6 8000 м мгла 3/0 [Cs] +19.5 +8.3 48 +20 +20 1011.5 849.8
ЮЗ 2 8000 м мгла 3/0 [Ac und Cs] +18.5 +7.7 49 +19 +19 1011.4 849.3
ЮЗ 5 9000 м мгла 6/0 [Ac cuf Cs] +18.2 +9.2 56 +18 +18 1013.2 850.6 +17.8
ЮЗ 2 8000 м мгла 4/0 [Ac trans Cs] +21.8 +3.4 30 +22 +31 комфорт 1014.2 853.3
ЮЗ 2 9000 м мгла 4/4 200 м [Cu med, cong Ac cuf Cs] +25.7 +7.4 31 +26 +37 жарко 1010.0 851.6
З 3 9000 м мгла 6/4 200 м [Cu med, cong Ac und Cs] +26.0 +7.0 30 +26 +28 жарко 1005.8 848.2
ЮЗ 5 9000 м мгла 5/3 200 м [Cu med, cong Ac und Cs] +22.0 +7.5 39 +23 +23 комфорт 1006.0 846.5 +27.5
З 5 8000 м мгла 3/0 [Ac und] +21.5 +6.8 39 +22 +22 комфорт 1009.3 849.0
З 4 8000 м мгла 3/0 [Ac und] +19.5 +6.5 43 +20 +20 1009.3 848.0
З 6 8000 м мгла 3/0 [Ac und Cs] +18.5 +7.2 48 +18 +18 1009.7 847.9
ЮЗ 3 9000 м мгла 6/0 [Ac cuf Cs] +17.3 +7.8 54 +17 +17 1012.2 849.3 +17.0
штиль 0 9000 м мгла 3/3 200 м [Cu med, cong Ac und Cs] +21.0 +9.9 49 +22 +34 комфорт 1012.7 851.6
штиль 0 9000 м мгла 5/0 [Ac und Cs] +26.0 +7.0 30 +26 +43 жарко 1009.1 851.0
ЮЗ 3 9000 м мгла 5/3 200 м [Cu med, cong Ac cuf Cs] +26.8 +4.5 24 +26 +29 жарко 1005.3 848.1
З 2 8000 м мгла 4/0 [Ac und Cs] +23.5 +5.7 32 +24 +24 комфорт 1006.4 847.5 +27.4
ЮЗ 1 8000 м мгла 4/0 [Ac und] +21.5 +7.3 40 +22 +22 комфорт 1009.1 848.8
ЮЗ 2 8000 м мгла 3/0 [Ac und Cs] +19.5 +7.8 47 +21 +21 комфорт 1009.4 848.1
З 6 8000 м мгла 3/0 [Ac und] +18.5 +7.7 49 +18 +18 1009.3 847.5
ЮЗ 4 9000 м мгла 6/0 [Ac und Cs] +18.0 +9.4 57 +18 +18 1011.9 849.4 +17.8
Местоположение метеостанции Дои Эн Ханг (Таиланд): широта 19.92 долгота 99.03 высота над уровнем моря 1530 м.
В архиве по умолчанию представлена погода на Дои Эн Ханг за последнюю неделю. Архивные данные за месяц целиком и за предыдущие месяцы, начиная с января 2011 года, Вы можете получить, выбрав интересующий диапазон дат из раскрывающегося списка и нажав кнопку "Найти!".
*Определитесь, кто Вы:
Внимание! Время в таблицах - всемирное. Для получения местного времени необходимо прибавить поправку, которая равна 7 ч.
Некоторые строки с данными для отдельных станций могут быть выделены курсивом. Это означает, что фактические данные отсутствуют по различным причинам, а приведенные значения являются расчетными модельными данными для данного пункта наблюдений.
Смотрите также архив погоды в соседних городах и на ближайших метеорологических станциях:
Партнеры нашего сайта:      
Пояснения к столбцам:
  • Ветер - указаны скорость ветра в м/с - средняя за 10 мин, порывы в срок и между сроками (в фигурных скобках) и направление, откуда дует ветер: С - северный,
  • СВ - северо-восточный, В - восточный, ЮВ - юго-восточный, Ю - южный, ЮЗ - юго-западный, З - западный, СЗ - северо-западный.
  • Видимость - горизонтальная дальность видимости в метрах или километрах. При видимости от 1 до 10 км при отсутствии осадков обычно наблюдается дымка, при ухудшении видимости до 1 км и менее - туман. В сухую погоду видимость может ухудшаться дымом, пылью или мглою.
  • Явления - указаны атмосферные явления, наблюдавшиеся в срок или в последний час перед сроком; фигурными скобками обозначены явления, наблюдавшиеся между сроками (за 1-3 часа до срока); квадратными скобками обозначены град или гололедные отложения с указанием их диаметра в мм.
  • Облачность - указаны через наклонную черту общая и нижняя облачность в баллах и высота нижней границы облаков в метрах; квадратными скобками обозначены формы облаков: Ci - перистые, Cs - перисто-слоистые, Cc - перисто-кучевые, Ac - высококучевые, As - высокослоистые, Sc - слоисто-кучевые, Ns - слоисто-дождевые, Cu - кучевые, Cb - кучево-дождевые. Подробнее классификацию облаков см. в Атласе облаков (PDF).
  • T - Температура воздуха - температура, измеренная на высоте 2 м над землей.
  • Td - Температура точки росы - температура, при понижении до которой содержащийся в воздухе водяной пар достигнет насыщения.
  • f - Относительная влажность воздуха - влажноcть воздуха, измеренная на высоте 2 м над землей.
  • Te - Эффективная температура - температура, которую ощущает одетый по сезону человек в тени. Характеристика душности погоды. При расчете учитывается влияние влажности воздуха и скорости ветра на теплоощущения человека.
  • Tes - Эффективная температура на солнце - температура, которую ощущает человек, с поправкой на солнечный нагрев. Характеристика знойности погоды. Зависит от высоты солнца над горизонтом, облачности и скорости ветра. Ночью, в пасмурную погоду, а также при ветре 12 м/с и более поправка равна нулю.
  • P - Атмосферное давление - приведенное к уровню моря атмосферное давление.
  • Po - Атмосферное давление - измеренное на уровне метеостанции атмосферное давление.
  • Tmin - Минимальная температура - минимум температуры воздуха на высоте 2 м над землей.
  • Tmax - Максимальная температура - максимум температуры воздуха на высоте 2 м над землей.
  • R - Количество осадков - Количество выпавших осадков за период времени, мм. При наведении курсора мыши на число - период времени, за который выпало указанное количество осадков.
  • R24 - Количество осадков - Количество выпавших осадков за 24 часа, мм.
  • S - Снежный покров - Высота снежного покрова, см. При наведении курсора мыши на число - состояние снежного покрова и степень покрытия местности в баллах.